Regional Weather Roundup
Issued by NWS Mt. Holly, NJ

Home | Current Version | Previous Version | Text Only | Print | Product List | Glossary On
Versions: 1 2 3 4 5 6 7 8 9 10 11 12 13 14 15 16 17 18 19 20 21 22 23 24 25 26 27 28 29 30 31 32 33 34 35 36 37 38 39 40 41 42 43 44 45 46 47 48 49 50
000
ASUS41 KPHI 280612
RWRPHI

REGIONAL WEATHER ROUNDUP
NATIONAL WEATHER SERVICE MOUNT HOLLY NJ
200 AM EDT TUE JUL 28 2015

NOTE:  "FAIR" INDICATES FEW OR NO CLOUDS BELOW 12,000 FEET WITH NO
SIGNIFICANT WEATHER AND/OR OBSTRUCTIONS TO VISIBILITY.

 * = STATION DOES NOT REPORT PRECIPITATION (E.G. RAIN, SNOW, ETC.)
        OR FOG.

NJZ015>026-280700-
SOUTHERN NEW JERSEY

CITY           SKY/WX    TMP DP  RH WIND       PRES   REMARKS
POMONA         CLEAR     74  72  93 CALM      30.02F
6HR MIN TEMP:  74; 6HR MAX TEMP:  77;

RIO GRANDE*    PTCLDY    73  72  94 S5        30.03S
MILLVILLE      PTCLDY    72  70  93 CALM      30.02S
WRIGHTSTOWN    CLEAR     69  68  99 CALM      30.00S
MOUNT HOLLY    PTCLDY    70  68  93 CALM      30.02S
TRENTON        CLEAR     73  68  84 SW3       30.02S
6HR MIN TEMP:  72; 6HR MAX TEMP:  82;


$$
NJZ001>014-280700-
NORTHERN NEW JERSEY

CITY           SKY/WX    TMP DP  RH WIND       PRES   REMARKS
SUSSEX         CLEAR     68  65  90 CALM      30.02F FOG
ANDOVER*         N/A     67  67 100 CALM      30.03F
MORRISTOWN     FOG       70  66  88 CALM      30.02F VSB 3/4
NEWARK         MOCLDY    76  68  76 SW8       30.01S
TETERBORO      CLEAR     76  67  73 SW7       30.00S
CALDWELL       CLEAR     73  68  84 CALM      30.02S
SOMERVILLE     CLEAR     70  67  90 CALM      30.00F FOG
ALLAIRE*       CLEAR     72  64  78 CALM      30.02F
TOMS RIVER*    CLEAR     70  68  94 CALM      30.02F

$$
PAZ043-044-047-054-055-060>062-066>071-280700-
EASTERN PENNSYLVANIA

CITY           SKY/WX    TMP DP  RH WIND       PRES   REMARKS
PHILADELPHIA   MOCLDY    76  71  85 CALM      30.02S
6HR MIN TEMP:  76; 6HR MAX TEMP:  83;

NORTH PHILA    CLEAR     74  67  78 CALM      30.03S
BLUE BELL      CLEAR     70  70 100 CALM      30.03S
DOYLESTOWN     PTCLDY    69  69 100 CALM      30.02F
QUAKERTOWN*    PTCLDY    70  68  94 CALM      30.05S
POTTSTOWN      LGT RAIN  71  71 100 CALM      30.05S FOG
LANCASTER      CLEAR     70  69  97 E3        30.03S FOG
COATESVILLE    CLEAR     70  70 100 CALM      30.05S FOG
READING        PTCLDY    72  69  90 CALM      30.02S FOG
6HR MIN TEMP:  72; 6HR MAX TEMP:  81;

ALLENTOWN      CLEAR     73  69  87 CALM      30.03S
6HR MIN TEMP:  72; 6HR MAX TEMP:  84;

MOUNT POCONO   PTCLDY    64  63  96 NW5       30.09S FOG
6HR MIN TEMP:  64; 6HR MAX TEMP:  73;

HAZLETON       MOCLDY    66  64  94 CALM      30.11S FOG
WILKES BARRE   CLEAR     67  65  93 SE3       30.04F

$$
DEZALL-MDZ008-012-015-019-020-280700-
DELAWARE AND EASTERN MARYLAND

CITY           SKY/WX    TMP DP  RH WIND       PRES   REMARKS
WILMINGTON     CLEAR     75  72  90 SW3       30.02F
6HR MIN TEMP:  75; 6HR MAX TEMP:  79;

DOVER          PTCLDY    74  74 100 S3        30.00S
GEORGETOWN     MOCLDY    73  71  93 CALM      30.02S
6HR MIN TEMP:  72; 6HR MAX TEMP:  76;

EASTON         CLEAR     75  75 100 S3        30.05S
PATUXENT       MOCLDY    72  69  90 CALM      30.01R
OCEAN CITY     CLOUDY    77  72  84 SW6       30.01F
WALLOPS ISLAND CLOUDY    76  74  93 SW6       30.02S
CAMBRIDGE      CLEAR     73  70  88 CALM      30.01S
SALISBURY      CLEAR     71  71 100 CALM      30.01F

$$
PAZ001-021-NYZ056-072-MDZ011-DCZ001-280700-
OTHER NEARBY LOCATIONS

CITY           SKY/WX    TMP DP  RH WIND       PRES   REMARKS
HARRISBURG     PTCLDY    75  71  87 CALM      30.02S
STATE COLLEGE  FOG       67  67  99 CALM      30.07S VSB 1/2
WILLIAMSPORT   CLEAR     68  66  93 W3        30.03S FOG
BINGHAMTON     CLEAR     70  63  78 CALM      30.07S
NEW YORK CITY  CLEAR     77  67  71 MISG      30.04S
BALTIMORE      PTCLDY    75  73  93 CALM      30.00F
WASHINGTON DC  PTCLDY    77  72  84 S6        30.01F

$$



USA.gov is the U.S. government's official web portal to all federal, state and local government web resources and services.